BAW658 EGLL-LGKF

Flight info

Callsign BAW658
Flight time N/A
Altitude 35000
Route DET L6 DVR UL9 KONAN DCT KOK DCT SISGA DCT KOMOB DCT EDISA DCT PICWI DCT UTABA DCT BEMKI DCT ELMEM DCT DIRAB DCT RASUG/N0444F370 DCT OKLAX DCT SIPAL DCT RODON DCT LIMJA DCT PITAS/N0444F330 UN732 KRK UT321 ASTUS
Aircraft A320/M-SDGHIJ1LRWXY/LB1

Departure

Time 2026-05-06 10:48
Airport London Heathrow Airport (EGLL)

Arrival

Time N/A
Airport Kefallinia Airport (LGKF)
Time Latitude Longitude Altitude Speed Heading
2026-05-06 09:55 51.46931 -0.48715 86 ft 0 kts 359°
2026-05-06 10:31 51.46929 -0.48715 86 ft 2 kts 359°
2026-05-06 10:31 51.46903 -0.48715 89 ft 4 kts 359°
2026-05-06 10:31 51.46884 -0.48716 86 ft 4 kts 39°
2026-05-06 10:31 51.46876 -0.48745 90 ft 3 kts 89°
2026-05-06 10:32 51.46876 -0.48788 86 ft 3 kts 89°
2026-05-06 10:32 51.46876 -0.48795 86 ft 1 kts 89°
2026-05-06 10:36 51.46876 -0.48794 86 ft 0 kts 89°
2026-05-06 10:38 51.46876 -0.48783 86 ft 2 kts 89°
2026-05-06 10:38 51.46867 -0.48760 89 ft 3 kts 139°
2026-05-06 10:38 51.46842 -0.48751 86 ft 5 kts 175°
2026-05-06 10:39 51.46803 -0.48750 90 ft 7 kts 179°
2026-05-06 10:39 51.46752 -0.48749 86 ft 8 kts 180°
2026-05-06 10:39 51.46689 -0.48749 86 ft 10 kts 180°
2026-05-06 10:39 51.46617 -0.48757 89 ft 11 kts 196°
2026-05-06 10:40 51.46596 -0.48769 86 ft 0 kts 199°
2026-05-06 10:45 51.46593 -0.48771 86 ft 1 kts 199°
2026-05-06 10:46 51.46575 -0.48781 86 ft 5 kts 199°
2026-05-06 10:46 51.46522 -0.48785 86 ft 9 kts 164°
2026-05-06 10:46 51.46480 -0.48710 89 ft 10 kts 105°
2026-05-06 10:46 51.46478 -0.48646 86 ft 0 kts 90°
2026-05-06 10:47 51.46478 -0.48645 90 ft 1 kts 90°
2026-05-06 10:47 51.46479 -0.48489 86 ft 41 kts 89°
2026-05-06 10:47 51.46482 -0.47665 86 ft 102 kts 89°
2026-05-06 10:48 51.46489 -0.46288 88 ft 146 kts 89°
2026-05-06 10:48 51.46477 -0.44530 433 ft 155 kts 88°
2026-05-06 10:48 51.46487 -0.42801 1041 ft 156 kts 84°
2026-05-06 10:48 51.46203 -0.40996 1318 ft 190 kts 122°
2026-05-06 10:49 51.45324 -0.39297 1604 ft 205 kts 124°
2026-05-06 10:49 51.44487 -0.37309 1839 ft 227 kts 117°
2026-05-06 10:49 51.43688 -0.34985 2171 ft 249 kts 108°
2026-05-06 10:49 51.43311 -0.32249 2830 ft 255 kts 97°
2026-05-06 10:50 51.42957 -0.29452 3729 ft 257 kts 99°
2026-05-06 10:50 51.42560 -0.26620 4525 ft 265 kts 98°
2026-05-06 10:50 51.42154 -0.23712 5318 ft 270 kts 98°
2026-05-06 10:50 51.41747 -0.20752 6064 ft 275 kts 98°
2026-05-06 10:51 51.41329 -0.17715 6785 ft 282 kts 99°
2026-05-06 10:51 51.40903 -0.14625 7559 ft 286 kts 99°
2026-05-06 10:51 51.40471 -0.11499 8350 ft 288 kts 100°
2026-05-06 10:51 51.40033 -0.08363 9097 ft 291 kts 100°
2026-05-06 10:52 51.39590 -0.05172 9886 ft 294 kts 100°
2026-05-06 10:52 51.39141 -0.01914 10293 ft 310 kts 100°
2026-05-06 10:52 51.38659 0.01592 10462 ft 334 kts 100°
2026-05-06 10:52 51.38141 0.05320 10744 ft 350 kts 101°
2026-05-06 10:53 51.37607 0.09148 11321 ft 355 kts 101°
2026-05-06 10:53 51.37060 0.13034 11925 ft 359 kts 101°
2026-05-06 10:53 51.36504 0.16966 12508 ft 363 kts 102°
2026-05-06 10:53 51.35943 0.20923 13130 ft 366 kts 102°
2026-05-06 10:54 51.35378 0.24919 13766 ft 371 kts 102°
2026-05-06 10:54 51.34807 0.28962 14322 ft 375 kts 102°
2026-05-06 10:54 51.34230 0.33041 14867 ft 378 kts 102°
2026-05-06 10:54 51.33644 0.37144 15452 ft 379 kts 102°
2026-05-06 10:55 51.33057 0.41235 15924 ft 384 kts 102°
2026-05-06 10:55 51.32450 0.45479 16473 ft 388 kts 102°
2026-05-06 10:55 51.31842 0.49700 17029 ft 390 kts 103°
2026-05-06 10:55 51.31238 0.53879 17586 ft 393 kts 103°
2026-05-06 10:56 51.30615 0.58196 18088 ft 397 kts 102°
2026-05-06 10:56 51.29968 0.62446 18581 ft 400 kts 104°
2026-05-06 10:56 51.29230 0.66730 19101 ft 401 kts 106°
2026-05-06 10:56 51.28435 0.71027 19551 ft 404 kts 107°
2026-05-06 10:57 51.27610 0.75340 19992 ft 407 kts 107°
2026-05-06 10:57 51.26779 0.79682 20476 ft 410 kts 107°
2026-05-06 10:57 51.25953 0.84040 20968 ft 411 kts 108°
2026-05-06 10:57 51.25131 0.88425 21374 ft 414 kts 108°
2026-05-06 10:58 51.24311 0.92838 21793 ft 416 kts 108°
2026-05-06 10:58 51.23488 0.97281 22242 ft 419 kts 107°
2026-05-06 10:58 51.22662 1.01751 22709 ft 420 kts 107°
2026-05-06 10:58 51.21832 1.06242 23098 ft 423 kts 108°
2026-05-06 10:59 51.20993 1.10760 23525 ft 425 kts 107°
2026-05-06 10:59 51.20149 1.15282 23912 ft 427 kts 108°
2026-05-06 10:59 51.19292 1.19826 24255 ft 429 kts 108°
2026-05-06 10:59 51.18433 1.24391 24598 ft 431 kts 108°
2026-05-06 11:00 51.17571 1.28972 24966 ft 432 kts 108°
2026-05-06 11:00 51.16714 1.33569 25294 ft 434 kts 106°
2026-05-06 11:00 51.16147 1.38320 25589 ft 438 kts 97°
2026-05-06 11:00 51.15909 1.43170 25935 ft 440 kts 95°
2026-05-06 11:01 51.15683 1.48028 26326 ft 440 kts 95°
2026-05-06 11:01 51.15452 1.52899 26672 ft 442 kts 95°
2026-05-06 11:01 51.15213 1.57783 27048 ft 443 kts 95°
2026-05-06 11:01 51.14969 1.62681 27382 ft 445 kts 95°
2026-05-06 11:02 51.14725 1.67602 27705 ft 447 kts 95°
2026-05-06 11:02 51.14485 1.72536 28095 ft 447 kts 95°
2026-05-06 11:02 51.14245 1.77459 28553 ft 446 kts 95°
2026-05-06 11:02 51.13996 1.82369 29030 ft 444 kts 95°
2026-05-06 11:03 51.13743 1.87266 29517 ft 442 kts 96°
2026-05-06 11:03 51.13487 1.92131 29976 ft 441 kts 96°
2026-05-06 11:03 51.13234 1.96914 30479 ft 437 kts 96°
2026-05-06 11:03 51.12979 2.01786 30944 ft 436 kts 96°
2026-05-06 11:04 51.12726 2.06584 31371 ft 434 kts 96°
2026-05-06 11:04 51.12468 2.11313 31765 ft 433 kts 96°
2026-05-06 11:04 51.12209 2.16162 32162 ft 433 kts 95°
2026-05-06 11:04 51.11959 2.20869 32544 ft 432 kts 95°
2026-05-06 11:05 51.11703 2.25633 32932 ft 432 kts 95°
2026-05-06 11:05 51.11444 2.30394 33300 ft 431 kts 95°
2026-05-06 11:05 51.11185 2.35139 33685 ft 431 kts 95°
2026-05-06 11:05 51.10923 2.39882 34030 ft 430 kts 95°
2026-05-06 11:06 51.10656 2.44622 34316 ft 430 kts 95°
2026-05-06 11:06 51.10385 2.49363 34556 ft 430 kts 96°
2026-05-06 11:06 51.10107 2.54114 34783 ft 432 kts 96°
2026-05-06 11:06 51.09827 2.58885 34904 ft 435 kts 96°
2026-05-06 11:07 51.09319 2.63641 34931 ft 440 kts 105°
2026-05-06 11:07 51.06992 2.72704 34922 ft 446 kts 119°
2026-05-06 11:08 51.04072 2.81442 34940 ft 448 kts 119°
2026-05-06 11:08 51.01163 2.90180 34934 ft 445 kts 119°
2026-05-06 11:09 50.98271 2.98873 34927 ft 445 kts 118°
2026-05-06 11:09 50.95395 3.07481 34919 ft 445 kts 119°
2026-05-06 11:10 50.92486 3.16144 34920 ft 445 kts 119°
2026-05-06 11:10 50.89573 3.24784 34913 ft 445 kts 119°
2026-05-06 11:11 50.86647 3.33429 34912 ft 446 kts 119°
2026-05-06 11:11 50.83715 3.42068 34901 ft 445 kts 119°
2026-05-06 11:12 50.80790 3.50680 34907 ft 444 kts 119°
2026-05-06 11:12 50.77852 3.59254 34907 ft 443 kts 119°
2026-05-06 11:13 50.74905 3.67818 34902 ft 443 kts 119°
2026-05-06 11:13 50.71959 3.76376 34900 ft 443 kts 119°
2026-05-06 11:14 50.69011 3.84924 34895 ft 444 kts 120°
2026-05-06 11:14 50.66054 3.93463 34893 ft 443 kts 120°
2026-05-06 11:15 50.63086 4.01990 34897 ft 444 kts 120°
2026-05-06 11:15 50.60107 4.10504 34889 ft 444 kts 120°
2026-05-06 11:16 50.57114 4.19003 34895 ft 444 kts 120°
2026-05-06 11:16 50.54113 4.27504 34897 ft 446 kts 121°
2026-05-06 11:17 50.51116 4.35967 34902 ft 446 kts 120°
2026-05-06 11:17 50.48092 4.44480 34905 ft 445 kts 121°
2026-05-06 11:18 50.45063 4.52949 34905 ft 445 kts 121°
2026-05-06 11:18 50.42022 4.61425 34908 ft 446 kts 121°
2026-05-06 11:19 50.38976 4.69902 34882 ft 446 kts 121°
2026-05-06 11:19 50.35933 4.78363 34885 ft 446 kts 121°
2026-05-06 11:20 50.32877 4.86822 34877 ft 447 kts 121°
2026-05-06 11:20 50.29808 4.95275 34868 ft 447 kts 121°
2026-05-06 11:21 50.26734 5.03728 34859 ft 447 kts 121°
2026-05-06 11:21 50.23647 5.12174 34852 ft 448 kts 121°
2026-05-06 11:22 50.20545 5.20631 34848 ft 449 kts 121°
2026-05-06 11:22 50.17432 5.29101 34854 ft 450 kts 121°
2026-05-06 11:23 50.14315 5.37554 34853 ft 450 kts 121°
2026-05-06 11:23 50.11180 5.46006 34852 ft 450 kts 122°
2026-05-06 11:24 50.08032 5.54429 34842 ft 450 kts 122°
2026-05-06 11:24 50.04881 5.62836 34852 ft 449 kts 122°
2026-05-06 11:25 50.01733 5.71217 34856 ft 448 kts 123°
2026-05-06 11:25 49.98581 5.79568 34856 ft 447 kts 123°
2026-05-06 11:26 49.95438 5.87878 34846 ft 446 kts 123°
2026-05-06 11:26 49.92306 5.96129 34838 ft 446 kts 123°
2026-05-06 11:27 49.89145 6.04419 34828 ft 447 kts 123°
2026-05-06 11:27 49.85982 6.12700 34830 ft 446 kts 123°
2026-05-06 11:28 49.82819 6.20977 34821 ft 446 kts 123°
2026-05-06 11:28 49.79642 6.29238 34817 ft 446 kts 123°
2026-05-06 11:29 49.76467 6.37468 34801 ft 446 kts 124°
2026-05-06 11:29 49.73815 6.44312 34803 ft 447 kts 124°
2026-05-06 11:30 49.70622 6.52561 34795 ft 447 kts 124°
2026-05-06 11:30 49.67428 6.60792 34795 ft 447 kts 124°
2026-05-06 11:31 49.64212 6.69008 34784 ft 448 kts 124°
2026-05-06 11:31 49.60987 6.77239 34775 ft 449 kts 124°
2026-05-06 11:32 49.57753 6.85486 34796 ft 449 kts 124°
2026-05-06 11:32 49.54514 6.93725 34795 ft 448 kts 124°
2026-05-06 11:33 49.51272 7.01902 34820 ft 447 kts 125°
2026-05-06 11:33 49.48036 7.10060 34818 ft 446 kts 125°
2026-05-06 11:34 49.44815 7.18179 34797 ft 445 kts 125°
2026-05-06 11:34 49.41586 7.26278 34799 ft 444 kts 125°
2026-05-06 11:35 49.38370 7.34313 34802 ft 445 kts 125°
2026-05-06 11:35 49.35109 7.42450 34804 ft 445 kts 125°
2026-05-06 11:36 49.31880 7.50469 34806 ft 445 kts 125°
2026-05-06 11:36 49.28606 7.58593 34791 ft 445 kts 126°
2026-05-06 11:37 49.25343 7.66652 34777 ft 446 kts 126°
2026-05-06 11:37 49.22077 7.74660 34778 ft 447 kts 126°
2026-05-06 11:38 49.18780 7.82736 34789 ft 448 kts 126°
2026-05-06 11:38 49.15474 7.90820 34791 ft 449 kts 126°
2026-05-06 11:39 49.12170 7.98916 34780 ft 449 kts 126°
2026-05-06 11:39 49.08851 8.06998 34783 ft 450 kts 127°
2026-05-06 11:40 49.05519 8.15076 34790 ft 450 kts 127°
2026-05-06 11:40 49.02176 8.23156 34800 ft 451 kts 127°
2026-05-06 11:41 48.98651 8.31008 34801 ft 445 kts 136°
2026-05-06 11:41 48.94243 8.37493 34812 ft 443 kts 138°
2026-05-06 11:42 48.89993 8.44332 34822 ft 445 kts 138°
2026-05-06 11:42 48.85749 8.51155 34812 ft 444 kts 138°
2026-05-06 11:43 48.81522 8.57944 34800 ft 442 kts 138°
2026-05-06 11:43 48.77286 8.64718 34799 ft 442 kts 138°
2026-05-06 11:44 48.70944 8.74825 34787 ft 443 kts 139°
2026-05-06 11:44 48.66695 8.81577 34801 ft 443 kts 139°
2026-05-06 11:45 48.62442 8.88331 34809 ft 443 kts 140°
2026-05-06 11:45 48.58184 8.95073 34816 ft 443 kts 140°
2026-05-06 11:46 48.53919 9.01796 34818 ft 443 kts 140°
2026-05-06 11:46 48.49650 9.08503 34955 ft 442 kts 140°
2026-05-06 11:47 48.45392 9.15178 35172 ft 441 kts 140°
2026-05-06 11:47 48.43270 9.18498 35299 ft 441 kts 140°
2026-05-06 11:47 48.41139 9.21831 35421 ft 441 kts 140°
2026-05-06 11:48 48.39015 9.25152 35545 ft 441 kts 140°
2026-05-06 11:48 48.36885 9.28475 35672 ft 441 kts 140°
2026-05-06 11:48 48.34759 9.31787 35796 ft 441 kts 140°
2026-05-06 11:48 48.32627 9.35101 35919 ft 441 kts 140°
2026-05-06 11:49 48.30489 9.38426 36050 ft 442 kts 140°
2026-05-06 11:49 48.28357 9.41737 36174 ft 441 kts 140°
2026-05-06 11:49 48.26218 9.45050 36293 ft 441 kts 140°
2026-05-06 11:49 48.23948 9.48094 36377 ft 436 kts 146°
2026-05-06 11:50 48.21635 9.50936 36506 ft 435 kts 146°
2026-05-06 11:50 48.19293 9.53812 36637 ft 435 kts 146°
2026-05-06 11:50 48.16952 9.56692 36776 ft 435 kts 146°
2026-05-06 11:50 48.14609 9.59572 36801 ft 436 kts 146°
2026-05-06 11:51 48.09924 9.65323 36792 ft 435 kts 146°
2026-05-06 11:51 48.05240 9.71059 36798 ft 435 kts 146°
2026-05-06 11:52 48.00558 9.76775 36785 ft 435 kts 146°
2026-05-06 11:52 47.95870 9.82474 36772 ft 435 kts 146°
2026-05-06 11:53 47.91176 9.88168 36797 ft 435 kts 146°
2026-05-06 11:53 47.86487 9.93865 36811 ft 435 kts 146°
2026-05-06 11:54 47.81793 9.99558 36808 ft 434 kts 146°
2026-05-06 11:54 47.77105 10.05214 36799 ft 434 kts 146°
2026-05-06 11:55 47.72407 10.10860 36796 ft 434 kts 146°
2026-05-06 11:55 47.67725 10.16466 36781 ft 435 kts 147°
2026-05-06 11:56 47.63015 10.22108 36799 ft 436 kts 147°
2026-05-06 11:56 47.58300 10.27742 36796 ft 435 kts 147°
2026-05-06 11:57 47.53452 10.32993 36783 ft 430 kts 152°
2026-05-06 11:57 47.48442 10.37850 36780 ft 431 kts 152°
2026-05-06 11:58 47.43421 10.42716 36775 ft 432 kts 152°
2026-05-06 11:58 47.38391 10.47583 36770 ft 432 kts 153°
2026-05-06 11:59 47.33367 10.52434 36786 ft 431 kts 153°
2026-05-06 11:59 47.28352 10.57258 36785 ft 430 kts 152°
2026-05-06 12:00 47.23419 10.62297 36800 ft 433 kts 150°
2026-05-06 12:00 47.18554 10.67522 36797 ft 433 kts 150°
2026-05-06 12:01 47.13684 10.72705 36808 ft 432 kts 150°
2026-05-06 12:01 47.08797 10.77812 36779 ft 431 kts 151°
2026-05-06 12:02 47.03890 10.82909 36792 ft 434 kts 151°
2026-05-06 12:02 46.98997 10.87994 36837 ft 434 kts 151°
2026-05-06 12:03 46.94047 10.93131 36858 ft 433 kts 150°
2026-05-06 12:03 46.89132 10.98225 36860 ft 433 kts 151°
2026-05-06 12:04 46.84242 11.03272 36877 ft 433 kts 151°
2026-05-06 12:04 46.79655 11.09092 36845 ft 446 kts 137°
2026-05-06 12:05 46.75607 11.15979 36866 ft 448 kts 137°
2026-05-06 12:05 46.71557 11.22863 36871 ft 449 kts 137°
2026-05-06 12:06 46.67477 11.29765 36877 ft 450 kts 137°
2026-05-06 12:06 46.63372 11.36674 36891 ft 451 kts 137°
2026-05-06 12:07 46.59262 11.43572 36872 ft 451 kts 138°
2026-05-06 12:07 46.55153 11.50460 36874 ft 451 kts 137°
2026-05-06 12:08 46.51039 11.57340 36877 ft 451 kts 137°
2026-05-06 12:08 46.46906 11.64228 36899 ft 453 kts 137°
2026-05-06 12:09 46.42764 11.71123 36913 ft 453 kts 137°
2026-05-06 12:09 46.38622 11.77998 36913 ft 453 kts 138°
2026-05-06 12:10 46.34478 11.84854 36915 ft 452 kts 138°
2026-05-06 12:10 46.30313 11.91707 36926 ft 454 kts 138°
2026-05-06 12:11 46.26151 11.98557 36931 ft 453 kts 138°
2026-05-06 12:11 46.21996 12.05407 36904 ft 453 kts 138°
2026-05-06 12:12 46.17865 12.12186 36916 ft 452 kts 138°
2026-05-06 12:12 46.13694 12.18996 36940 ft 453 kts 139°
2026-05-06 12:13 46.09521 12.25783 36943 ft 452 kts 139°
2026-05-06 12:13 46.05357 12.32553 36941 ft 451 kts 139°
2026-05-06 12:14 46.01194 12.39319 36927 ft 452 kts 138°
2026-05-06 12:14 45.97016 12.46077 36934 ft 452 kts 138°
2026-05-06 12:15 45.93542 12.51695 36934 ft 452 kts 139°
2026-05-06 12:15 45.89356 12.58422 36942 ft 452 kts 139°
2026-05-06 12:16 45.85171 12.65146 36941 ft 452 kts 139°
2026-05-06 12:16 45.80987 12.71867 36931 ft 451 kts 139°
2026-05-06 12:17 45.76805 12.78558 36947 ft 451 kts 139°
2026-05-06 12:17 45.72612 12.85239 36947 ft 451 kts 139°
2026-05-06 12:18 45.68412 12.91914 36950 ft 451 kts 139°
2026-05-06 12:18 45.64375 12.98823 36946 ft 455 kts 135°
2026-05-06 12:19 45.60530 13.06017 36924 ft 455 kts 134°
2026-05-06 12:19 45.56682 13.13186 36939 ft 455 kts 134°
2026-05-06 12:20 45.52795 13.20223 36955 ft 454 kts 135°
2026-05-06 12:20 45.48859 13.27254 36961 ft 453 kts 135°
2026-05-06 12:21 45.44921 13.34282 36952 ft 454 kts 135°
2026-05-06 12:21 45.40999 13.41300 36955 ft 452 kts 135°
2026-05-06 12:22 45.37077 13.48292 36959 ft 452 kts 135°
2026-05-06 12:22 45.33150 13.55281 36964 ft 452 kts 135°
2026-05-06 12:23 45.29220 13.62261 36977 ft 452 kts 135°
2026-05-06 12:23 45.25291 13.69218 36963 ft 452 kts 135°
2026-05-06 12:24 45.21366 13.76155 36978 ft 451 kts 135°
2026-05-06 12:24 45.17440 13.83080 37004 ft 451 kts 135°
2026-05-06 12:25 45.13512 13.89984 36996 ft 450 kts 135°
2026-05-06 12:25 45.09581 13.96876 36986 ft 450 kts 135°
2026-05-06 12:26 45.05642 14.03750 36989 ft 449 kts 135°
2026-05-06 12:26 45.01735 14.10565 37005 ft 450 kts 135°
2026-05-06 12:27 44.97794 14.17435 37005 ft 449 kts 135°
2026-05-06 12:27 44.93866 14.24269 36997 ft 448 kts 135°
2026-05-06 12:28 44.89926 14.31083 36975 ft 449 kts 135°
2026-05-06 12:28 44.85977 14.37918 36976 ft 449 kts 135°
2026-05-06 12:29 44.82029 14.44733 36993 ft 449 kts 135°
2026-05-06 12:29 44.78066 14.51546 37003 ft 449 kts 135°
2026-05-06 12:30 44.74100 14.58341 36987 ft 449 kts 135°
2026-05-06 12:30 44.70137 14.65124 36997 ft 449 kts 135°
2026-05-06 12:31 44.66169 14.71912 37006 ft 449 kts 135°
2026-05-06 12:31 44.62200 14.78671 37003 ft 448 kts 135°
2026-05-06 12:32 44.58250 14.85391 37007 ft 449 kts 135°
2026-05-06 12:32 44.54275 14.92126 37008 ft 448 kts 135°
2026-05-06 12:33 44.50296 14.98856 37008 ft 448 kts 135°
2026-05-06 12:33 44.46311 15.05579 37011 ft 448 kts 135°
2026-05-06 12:34 44.42335 15.12287 37008 ft 448 kts 135°
2026-05-06 12:34 44.38356 15.18985 36995 ft 448 kts 135°
2026-05-06 12:35 44.34355 15.25677 36994 ft 449 kts 135°